timestamp,wind_dir_avg,wind_spd_avg,wind_spd_max_dir,wind_spd_gust,battery_voltage,lat,long
2023-02-17 00:04:00+00:00,253.0,5.41,264.0,6.33,12.33,47.59359,-54.27349
2023-02-17 00:14:00+00:00,266.0,7.2,264.0,8.15,12.33,47.59359,-54.27349
2023-02-17 00:24:00+00:00,259.0,5.94,269.0,7.77,12.33,47.59359,-54.27349
2023-02-17 00:34:00+00:00,255.0,6.15,254.0,6.62,12.33,47.59359,-54.27349
2023-02-17 00:44:00+00:00,256.0,7.21,253.0,8.75,12.33,47.59359,-54.27349
2023-02-17 00:54:00+00:00,241.0,6.27,242.0,6.88,12.33,47.59359,-54.27349
2023-02-17 01:04:00+00:00,236.0,7.03,236.0,7.77,12.33,47.59359,-54.27349
2023-02-17 01:14:01+00:00,243.0,7.03,246.0,7.56,12.33,47.59359,-54.27349
2023-02-17 01:24:01+00:00,239.0,6.73,243.0,7.78,12.33,47.59359,-54.27349
2023-02-17 01:34:01+00:00,239.0,6.46,238.0,7.09,12.33,47.59359,-54.27349
2023-02-17 01:44:01+00:00,242.0,6.87,238.0,7.87,12.33,47.59359,-54.27349
2023-02-17 01:54:01+00:00,232.0,5.57,232.0,6.33,12.33,47.59359,-54.27349
2023-02-17 02:04:01+00:00,225.0,5.6,224.0,7.62,12.33,47.59359,-54.27349
2023-02-17 02:14:00+00:00,222.0,4.89,230.0,5.7,12.25,47.59359,-54.27349
2023-02-17 02:24:00+00:00,214.0,6.18,213.0,7.14,12.25,47.59359,-54.27349
2023-02-17 02:34:00+00:00,211.0,6.64,211.0,7.26,12.25,47.59359,-54.27349
2023-02-17 02:44:00+00:00,208.0,6.54,206.0,7.4,12.25,47.59359,-54.27349
2023-02-17 02:54:00+00:00,204.0,4.77,206.0,5.47,12.25,47.59359,-54.27349
2023-02-17 03:04:00+00:00,205.0,6.47,206.0,6.92,12.25,47.59359,-54.27349
2023-02-17 03:14:00+00:00,198.0,7.49,200.0,7.96,12.25,47.59359,-54.27349
2023-02-17 03:24:00+00:00,195.0,6.64,198.0,7.41,12.25,47.59359,-54.27349
2023-02-17 03:34:00+00:00,201.0,7.33,204.0,8.04,12.25,47.59359,-54.27349
2023-02-17 03:44:00+00:00,214.0,5.2,215.0,5.84,12.25,47.59359,-54.27349
2023-02-17 03:54:00+00:00,208.0,7.66,208.0,8.65,12.25,47.59359,-54.27349
2023-02-17 04:04:00+00:00,207.0,6.66,208.0,7.2,12.25,47.59359,-54.27349
2023-02-17 04:14:00+00:00,211.0,7.01,211.0,7.98,12.25,47.59359,-54.27349
2023-02-17 04:24:00+00:00,211.0,7.65,209.0,8.4,12.25,47.59359,-54.27349
2023-02-17 04:34:00+00:00,212.0,6.84,211.0,7.72,12.25,47.59359,-54.27349
2023-02-17 04:44:00+00:00,217.0,9.62,220.0,11.04,12.25,47.59359,-54.27349
2023-02-17 04:54:00+00:00,220.0,8.3,219.0,9.56,12.25,47.59359,-54.27349
2023-02-17 05:04:00+00:00,215.0,8.19,223.0,9.92,12.25,47.59359,-54.27349
2023-02-17 05:14:01+00:00,228.0,7.88,231.0,9.76,12.17,47.59359,-54.27349
2023-02-17 05:24:01+00:00,222.0,8.29,222.0,9.29,12.17,47.59359,-54.27349
2023-02-17 05:34:01+00:00,214.0,7.89,225.0,9.03,12.17,47.59359,-54.27349
2023-02-17 05:44:01+00:00,226.0,8.69,222.0,11.43,12.17,47.59359,-54.27349
2023-02-17 05:54:01+00:00,221.0,10.04,224.0,10.84,12.17,47.59359,-54.27349
2023-02-17 06:04:01+00:00,221.0,9.36,223.0,11.29,12.17,47.59359,-54.27349
2023-02-17 06:14:00+00:00,230.0,8.86,229.0,10.69,12.17,47.59359,-54.27349
2023-02-17 06:24:00+00:00,229.0,9.32,236.0,11.18,12.17,47.59359,-54.27349
2023-02-17 06:34:00+00:00,227.0,9.01,231.0,10.17,12.17,47.59359,-54.27349
2023-02-17 06:44:00+00:00,225.0,9.0,219.0,10.85,12.17,47.59359,-54.27349
2023-02-17 06:54:00+00:00,224.0,7.42,220.0,9.8,12.17,47.59359,-54.27349
2023-02-17 07:04:00+00:00,220.0,6.7,235.0,7.62,12.17,47.59359,-54.27349
2023-02-17 07:14:00+00:00,221.0,7.1,218.0,8.85,12.17,47.59359,-54.27349
2023-02-17 07:24:00+00:00,231.0,8.45,231.0,9.71,12.17,47.59359,-54.27349
2023-02-17 07:34:00+00:00,232.0,8.75,228.0,10.42,12.17,47.59359,-54.27349
2023-02-17 07:44:00+00:00,228.0,8.79,227.0,10.16,12.17,47.59359,-54.27349
2023-02-17 07:54:00+00:00,229.0,9.0,230.0,10.79,12.17,47.59359,-54.27349
2023-02-17 08:04:00+00:00,213.0,6.83,213.0,8.74,12.17,47.59359,-54.27349
2023-02-17 08:14:01+00:00,217.0,8.06,217.0,9.1,12.17,47.59359,-54.27349
2023-02-17 08:24:01+00:00,213.0,8.11,217.0,8.95,12.17,47.59359,-54.27349
2023-02-17 08:34:01+00:00,216.0,8.65,218.0,10.01,12.17,47.59359,-54.27349
2023-02-17 08:44:01+00:00,223.0,8.33,221.0,9.58,12.17,47.59359,-54.27349
2023-02-17 08:54:01+00:00,227.0,9.01,220.0,10.6,12.17,47.59359,-54.27349
2023-02-17 09:04:01+00:00,228.0,9.02,223.0,10.52,12.17,47.59359,-54.27349
2023-02-17 09:14:01+00:00,229.0,8.65,225.0,10.13,12.17,47.59359,-54.27349
2023-02-17 09:24:01+00:00,235.0,9.1,237.0,11.03,12.17,47.59359,-54.27349
2023-02-17 09:34:01+00:00,232.0,8.77,228.0,10.58,12.17,47.59359,-54.27349
2023-02-17 09:44:01+00:00,229.0,9.32,222.0,11.05,12.17,47.59359,-54.27349
2023-02-17 09:54:01+00:00,228.0,8.61,221.0,9.93,12.17,47.59359,-54.27349
2023-02-17 10:04:01+00:00,229.0,9.61,231.0,10.94,12.17,47.59359,-54.27349
2023-02-17 10:14:00+00:00,228.0,9.42,221.0,11.2,12.17,47.59359,-54.27349
2023-02-17 10:24:00+00:00,226.0,9.67,224.0,11.59,12.17,47.59359,-54.27349
2023-02-17 10:34:00+00:00,228.0,10.75,224.0,12.48,12.17,47.59359,-54.27349
2023-02-17 10:44:00+00:00,233.0,9.54,229.0,11.6,12.17,47.59359,-54.27349
2023-02-17 10:54:00+00:00,232.0,9.46,236.0,10.6,12.17,47.59359,-54.27349
2023-02-17 11:04:00+00:00,235.0,9.64,234.0,11.29,12.17,47.59359,-54.27349
2023-02-17 11:14:00+00:00,236.0,9.29,242.0,11.12,12.73,47.59359,-54.27349
2023-02-17 11:24:00+00:00,238.0,9.22,241.0,10.46,12.73,47.59359,-54.27349
2023-02-17 11:34:00+00:00,241.0,9.86,249.0,11.14,12.73,47.59359,-54.27349
2023-02-17 11:44:00+00:00,246.0,8.77,246.0,10.74,12.73,47.59359,-54.27349
2023-02-17 11:54:00+00:00,254.0,8.46,255.0,9.7,12.73,47.59359,-54.27349
2023-02-17 12:04:00+00:00,259.0,8.19,254.0,9.57,12.73,47.59359,-54.27349
2023-02-17 12:14:00+00:00,261.0,9.5,264.0,11.06,13.44,47.59359,-54.27349
2023-02-17 12:24:00+00:00,262.0,8.77,270.0,10.77,13.44,47.59359,-54.27349
2023-02-17 12:34:00+00:00,254.0,8.92,258.0,10.76,13.44,47.59359,-54.27349
2023-02-17 12:44:00+00:00,261.0,9.08,262.0,10.53,13.44,47.59359,-54.27349
2023-02-17 12:54:00+00:00,256.0,9.0,251.0,10.27,13.44,47.59359,-54.27349
2023-02-17 13:04:00+00:00,241.0,6.41,256.0,7.6,13.44,47.59359,-54.27349
2023-02-17 13:14:00+00:00,240.0,7.33,237.0,8.34,14.56,47.59359,-54.27349
2023-02-17 13:24:00+00:00,249.0,5.24,247.0,5.75,14.56,47.59359,-54.27349
2023-02-17 13:34:00+00:00,277.0,8.26,272.0,9.97,14.56,47.59359,-54.27349
2023-02-17 13:44:00+00:00,257.0,7.99,260.0,10.06,14.56,47.59359,-54.27349
2023-02-17 13:54:00+00:00,273.0,7.29,271.0,9.99,14.56,47.59359,-54.27349
2023-02-17 14:04:00+00:00,267.0,6.9,269.0,9.51,14.56,47.59359,-54.27349
2023-02-17 14:14:00+00:00,268.0,4.91,263.0,5.98,13.92,47.59359,-54.27349
2023-02-17 14:24:00+00:00,255.0,4.12,244.0,5.5,13.92,47.59359,-54.27349
2023-02-17 14:34:00+00:00,251.0,7.18,253.0,8.85,13.92,47.59359,-54.27349
2023-02-17 14:44:00+00:00,255.0,7.46,253.0,9.41,13.92,47.59359,-54.27349
2023-02-17 14:54:00+00:00,271.0,8.04,267.0,9.33,13.92,47.59359,-54.27349
2023-02-17 15:04:00+00:00,283.0,6.74,281.0,7.65,13.92,47.59359,-54.27349
2023-02-17 15:14:00+00:00,272.0,7.2,275.0,8.53,13.68,47.59359,-54.27349
2023-02-17 15:24:00+00:00,269.0,7.02,270.0,8.04,13.68,47.59359,-54.27349
2023-02-17 15:34:00+00:00,264.0,8.43,266.0,9.5,13.68,47.59359,-54.27349
2023-02-17 15:44:00+00:00,268.0,7.41,269.0,8.18,13.68,47.59359,-54.27349
2023-02-17 15:54:00+00:00,267.0,7.27,266.0,9.37,13.68,47.59359,-54.27349
2023-02-17 16:04:00+00:00,260.0,8.29,259.0,10.15,13.68,47.59359,-54.27349
2023-02-17 16:14:00+00:00,261.0,9.1,264.0,10.21,13.68,47.59359,-54.27349
2023-02-17 16:24:00+00:00,273.0,8.63,273.0,10.3,13.68,47.59359,-54.27349
2023-02-17 16:34:00+00:00,266.0,6.98,267.0,10.0,13.68,47.59359,-54.27349
2023-02-17 16:44:00+00:00,257.0,3.77,256.0,3.86,13.68,47.59359,-54.27349
2023-02-17 16:54:00+00:00,263.0,4.09,260.0,4.43,13.68,47.59359,-54.27349
2023-02-17 17:04:00+00:00,267.0,3.71,269.0,3.88,13.68,47.59359,-54.27349
2023-02-17 17:14:00+00:00,234.0,3.52,234.0,3.73,13.76,47.59359,-54.27349
2023-02-17 17:24:00+00:00,220.0,2.97,228.0,3.6,13.76,47.59359,-54.27349
2023-02-17 17:34:00+00:00,197.0,3.91,200.0,4.24,13.76,47.59359,-54.27349
2023-02-17 17:44:00+00:00,216.0,4.35,218.0,4.72,13.76,47.59359,-54.27349
2023-02-17 17:54:00+00:00,226.0,3.69,227.0,4.12,13.76,47.59359,-54.27349
2023-02-17 18:04:00+00:00,184.0,4.93,188.0,5.4,13.76,47.59359,-54.27349
2023-02-17 18:14:01+00:00,186.0,5.94,199.0,6.55,13.37,47.59359,-54.27349
2023-02-17 18:24:01+00:00,213.0,5.89,212.0,6.43,13.37,47.59359,-54.27349
2023-02-17 18:34:01+00:00,206.0,5.75,209.0,6.4,13.37,47.59359,-54.27349
2023-02-17 18:44:01+00:00,213.0,5.78,212.0,6.44,13.37,47.59359,-54.27349
2023-02-17 18:54:01+00:00,215.0,5.62,217.0,6.13,13.37,47.59359,-54.27349
2023-02-17 19:04:01+00:00,222.0,5.36,219.0,5.83,13.37,47.59359,-54.27349
2023-02-17 19:14:00+00:00,217.0,5.72,217.0,6.18,13.13,47.59359,-54.27349
2023-02-17 19:24:00+00:00,219.0,4.71,216.0,5.53,13.13,47.59359,-54.27349
2023-02-17 19:34:00+00:00,219.0,4.76,218.0,5.07,13.13,47.59359,-54.27349
2023-02-17 19:44:00+00:00,217.0,5.23,215.0,5.68,13.13,47.59359,-54.27349
2023-02-17 19:54:00+00:00,222.0,5.03,220.0,5.48,13.13,47.59359,-54.27349
2023-02-17 20:04:00+00:00,231.0,4.13,230.0,4.65,13.13,47.59359,-54.27349
2023-02-17 20:14:00+00:00,206.0,2.51,215.0,3.01,12.65,47.59359,-54.27349
2023-02-17 20:24:00+00:00,191.0,3.23,204.0,3.57,12.65,47.59359,-54.27349
2023-02-17 20:34:00+00:00,190.0,4.31,193.0,4.86,12.65,47.59359,-54.27349
2023-02-17 20:44:00+00:00,187.0,3.99,201.0,4.62,12.65,47.59359,-54.27349
2023-02-17 20:54:00+00:00,194.0,4.08,196.0,4.47,12.65,47.59359,-54.27349
2023-02-17 21:04:00+00:00,181.0,3.04,181.0,3.33,12.65,47.59359,-54.27349
2023-02-17 21:14:00+00:00,162.0,2.08,162.0,2.26,12.41,47.59359,-54.27349
2023-02-17 21:24:00+00:00,207.0,0.93,213.0,1.1,12.41,47.59359,-54.27349
2023-02-17 21:34:00+00:00,170.0,0.94,174.0,1.07,12.41,47.59359,-54.27349
2023-02-17 21:44:00+00:00,202.0,1.04,246.0,2.39,12.41,47.59359,-54.27349
2023-02-17 21:54:00+00:00,270.0,0.16,95.0,2.1,12.41,47.59359,-54.27349
2023-02-17 22:04:00+00:00,53.0,0.78,78.0,3.59,12.41,47.59359,-54.27349
2023-02-17 22:14:01+00:00,78.0,2.61,62.0,3.97,12.41,47.59359,-54.27349
2023-02-17 22:24:01+00:00,95.0,1.77,104.0,3.47,12.41,47.59359,-54.27349
2023-02-17 22:34:01+00:00,65.0,0.71,68.0,3.04,12.41,47.59359,-54.27349
2023-02-17 22:44:01+00:00,39.0,0.51,71.0,2.65,12.41,47.59359,-54.27349
2023-02-17 22:54:01+00:00,75.0,1.68,91.0,3.37,12.41,47.59359,-54.27349
2023-02-17 23:04:01+00:00,91.0,2.28,87.0,3.94,12.41,47.59359,-54.27349
2023-02-17 23:14:00+00:00,99.0,2.43,65.0,3.91,12.33,47.59359,-54.27349
2023-02-17 23:24:00+00:00,69.0,2.54,74.0,4.15,12.33,47.59359,-54.27349
2023-02-17 23:34:00+00:00,72.0,3.46,71.0,3.86,12.33,47.59359,-54.27349
2023-02-17 23:44:00+00:00,71.0,3.96,70.0,4.4,12.33,47.59359,-54.27349
2023-02-17 23:54:00+00:00,60.0,4.96,58.0,5.46,12.33,47.59359,-54.27349
